When you browse on this site, cookies collect data to enhance your experience and personalize the content and advertising you see.
Visit our Privacy Policy to learn more. By continuing to use the site, you agree to this use of cookies and data.
  • In Hungary
  • List of Countries
  • For 7 days
  • Water Temperature
  • Weather Map
  • News
  • Weather Widgets
  • user-avatar
    Login

    Hourly Weather Jindrichuv Hradec

    Today, 18 February, Tuesday

    Time Temperature Precipitation Wind Pressure Humidity
    00:00 +5°C° 0 mm 5 mps 723 mmHg 82%
    01:00 +4°C° 0 mm 6 mps 723 mmHg 78%
    02:00 +3°C° 0 mm 6 mps 723 mmHg 80%
    03:00 +3°C° 0 mm 6 mps 724 mmHg 82%
    04:00 +3°C° 0 mm 6 mps 724 mmHg 84%
    05:00 +2°C° 0 mm 6 mps 724 mmHg 83%
    06:00 +2°C° 0 mm 6 mps 724 mmHg 81%
    07:00 +2°C° 0 mm 6 mps 724 mmHg 80%
    08:00 +2°C° 0 mm 7 mps 725 mmHg 76%
    09:00 +3°C° 0 mm 7 mps 725 mmHg 72%
    10:00 +4°C° 0 mm 8 mps 726 mmHg 69%
    11:00 +4°C° 0 mm 8 mps 726 mmHg 66%
    12:00 +4°C° 0 mm 8 mps 726 mmHg 63%
    13:00 +5°C° 0 mm 8 mps 726 mmHg 60%
    14:00 +4°C° 0 mm 7 mps 726 mmHg 61%
    15:00 +4°C° 0 mm 7 mps 725 mmHg 62%
    16:00 +4°C° 0 mm 6 mps 725 mmHg 62%
    17:00 +3°C° 0 mm 6 mps 725 mmHg 66%
    18:00 +2°C° 0 mm 5 mps 725 mmHg 70%
    19:00 +1°C° 0 mm 4 mps 726 mmHg 75%
    20:00 0°C° 0 mm 4 mps 726 mmHg 77%
    21:00 0°C° 0 mm 4 mps 726 mmHg 79%
    22:00 +1°C° 0 mm 3 mps 726 mmHg 81%
    23:00 0°C° 0 mm 3 mps 725 mmHg 81%

    Tomorrow, 19 February, Wednesday

    Time Temperature Precipitation Wind Pressure Humidity
    00:00 0°C° 0 mm 3 mps 725 mmHg 82%
    01:00 0°C° 0 mm 3 mps 725 mmHg 82%
    02:00 0°C° 0 mm 3 mps 724 mmHg 82%
    03:00 -1°C° 0 mm 4 mps 723 mmHg 82%
    04:00 -1°C° 0 mm 4 mps 723 mmHg 83%
    05:00 -1°C° 0 mm 4 mps 722 mmHg 81%
    06:00 -1°C° 0 mm 4 mps 722 mmHg 80%
    07:00 -1°C° 0 mm 5 mps 722 mmHg 78%
    08:00 0°C° 0 mm 5 mps 721 mmHg 76%
    09:00 +1°C° 0 mm 6 mps 721 mmHg 74%
    10:00 +2°C° 0 mm 7 mps 720 mmHg 71%
    11:00 +2°C° 0.1 mm 7 mps 720 mmHg 74%
    12:00 +1°C° 0.1 mm 8 mps 720 mmHg 77%
    13:00 +1°C° 0.1 mm 8 mps 720 mmHg 79%
    14:00 +2°C° 0.3 mm 7 mps 720 mmHg 75%
    15:00 +2°C° 0.3 mm 7 mps 720 mmHg 72%
    16:00 +1°C° 0.3 mm 6 mps 720 mmHg 68%
    17:00 +1°C° 0.2 mm 6 mps 721 mmHg 71%
    18:00 -1°C° 0.2 mm 6 mps 722 mmHg 75%
    19:00 -2°C° 0.2 mm 6 mps 722 mmHg 79%
    20:00 -1°C° 0 mm 5 mps 723 mmHg 80%
    21:00 -2°C° 0 mm 5 mps 723 mmHg 81%
    22:00 -2°C° 0 mm 4 mps 724 mmHg 82%
    23:00 -2°C° 0 mm 4 mps 724 mmHg 83%

    Day after tomorrow, 20 February, Thursday

    Time Temperature Precipitation Wind Pressure Humidity
    00:00 -3°C° 0 mm 4 mps 724 mmHg 84%
    01:00 -3°C° 0 mm 4 mps 724 mmHg 84%
    02:00 -3°C° 0 mm 4 mps 724 mmHg 84%
    03:00 -2°C° 0 mm 3 mps 724 mmHg 85%
    04:00 -2°C° 0 mm 3 mps 723 mmHg 85%
    05:00 -2°C° 0 mm 3 mps 723 mmHg 85%
    06:00 -2°C° 0 mm 3 mps 723 mmHg 85%
    07:00 -2°C° 0 mm 3 mps 723 mmHg 85%
    08:00 -1°C° 0.1 mm 3 mps 723 mmHg 85%
    09:00 0°C° 0.1 mm 3 mps 724 mmHg 84%
    10:00 0°C° 0.1 mm 4 mps 724 mmHg 84%
    11:00 +2°C° 0 mm 3 mps 724 mmHg 84%
    12:00 +2°C° 0 mm 3 mps 723 mmHg 84%
    13:00 +4°C° 0 mm 2 mps 723 mmHg 84%
    14:00 +4°C° 0 mm 2 mps 723 mmHg 82%
    15:00 +4°C° 0 mm 2 mps 722 mmHg 80%
    16:00 +5°C° 0 mm 2 mps 722 mmHg 77%
    17:00 +4°C° 0 mm 2 mps 722 mmHg 81%
    18:00 +3°C° 0 mm 2 mps 722 mmHg 86%
    19:00 +2°C° 0 mm 2 mps 722 mmHg 90%
    20:00 +1°C° 0 mm 2 mps 722 mmHg 90%
    21:00 +1°C° 0 mm 2 mps 722 mmHg 90%
    22:00 +1°C° 0 mm 2 mps 722 mmHg 91%
    23:00 +1°C° 0 mm 2 mps 722 mmHg 90%

    21 February, Friday

    Time Temperature Precipitation Wind Pressure Humidity
    00:00 +1°C° 0 mm 2 mps 722 mmHg 89%
    01:00 -1°C° 0 mm 2 mps 722 mmHg 88%
    02:00 +1°C° 0 mm 2 mps 722 mmHg 87%
    03:00 0°C° 0 mm 3 mps 722 mmHg 87%
    04:00 0°C° 0 mm 3 mps 722 mmHg 86%
    05:00 0°C° 0 mm 4 mps 722 mmHg 86%
    06:00 +1°C° 0 mm 5 mps 722 mmHg 86%
    07:00 +1°C° 0 mm 5 mps 723 mmHg 86%
    14:00 +2°C° 0 mm 8 mps 728 mmHg 51%
    15:00 +3°C° 0 mm 7 mps 728 mmHg 52%
    16:00 +3°C° 0 mm 6 mps 728 mmHg 53%
    17:00 +2°C° 0 mm 5 mps 729 mmHg 60%
    18:00 0°C° 0 mm 4 mps 729 mmHg 67%
    19:00 0°C° 0 mm 3 mps 729 mmHg 74%
    20:00 0°C° 0 mm 3 mps 730 mmHg 76%
    21:00 -1°C° 0 mm 3 mps 730 mmHg 79%
    22:00 -1°C° 0 mm 3 mps 730 mmHg 81%
    23:00 -1°C° 0 mm 2 mps 730 mmHg 81%

    22 February, Saturday

    Time Temperature Precipitation Wind Pressure Humidity
    00:00 -1°C° 0 mm 2 mps 730 mmHg 82%
    01:00 -2°C° 0 mm 2 mps 730 mmHg 83%
    02:00 -1°C° 0 mm 2 mps 730 mmHg 81%
    03:00 -1°C° 0 mm 2 mps 729 mmHg 79%
    04:00 -1°C° 0 mm 2 mps 729 mmHg 77%
    05:00 -1°C° 0 mm 2 mps 729 mmHg 75%
    06:00 -1°C° 0 mm 3 mps 729 mmHg 74%
    07:00 0°C° 0 mm 3 mps 729 mmHg 72%
    08:00 0°C° 0 mm 4 mps 729 mmHg 68%
    09:00 +1°C° 0 mm 5 mps 729 mmHg 63%
    10:00 +3°C° 0 mm 5 mps 729 mmHg 58%
    11:00 +5°C° 0 mm 5 mps 729 mmHg 55%
    12:00 +5°C° 0 mm 6 mps 728 mmHg 52%
    13:00 +7°C° 0 mm 6 mps 728 mmHg 49%
    14:00 +7°C° 0 mm 5 mps 728 mmHg 51%
    15:00 +7°C° 0 mm 5 mps 727 mmHg 53%
    16:00 +7°C° 0 mm 5 mps 727 mmHg 54%
    17:00 +6°C° 0 mm 5 mps 727 mmHg 57%
    18:00 +5°C° 0 mm 5 mps 727 mmHg 60%
    19:00 +3°C° 0 mm 5 mps 727 mmHg 62%
    20:00 +3°C° 0 mm 5 mps 727 mmHg 61%
    21:00 +3°C° 0 mm 5 mps 727 mmHg 60%
    22:00 +3°C° 0 mm 5 mps 727 mmHg 59%
    23:00 +5°C° 0 mm 5 mps 727 mmHg 61%

    23 February, Sunday

    Time Temperature Precipitation Wind Pressure Humidity
    00:00 +5°C° 0 mm 5 mps 727 mmHg 64%
    01:00 +5°C° 0 mm 5 mps 727 mmHg 66%
    02:00 +4°C° 0 mm 6 mps 727 mmHg 69%
    03:00 +4°C° 0 mm 6 mps 727 mmHg 72%
    04:00 +4°C° 0 mm 6 mps 726 mmHg 74%
    05:00 +4°C° 0 mm 6 mps 726 mmHg 76%
    06:00 +4°C° 0 mm 6 mps 726 mmHg 78%
    07:00 +4°C° 0 mm 6 mps 726 mmHg 80%
    08:00 +5°C° 0 mm 6 mps 726 mmHg 78%
    09:00 +7°C° 0 mm 6 mps 727 mmHg 77%
    10:00 +8°C° 0 mm 7 mps 727 mmHg 76%
    11:00 +8°C° 0 mm 7 mps 726 mmHg 75%
    12:00 +9°C° 0 mm 7 mps 726 mmHg 73%
    13:00 +10°C° 0 mm 7 mps 726 mmHg 72%
    14:00 +10°C° 0 mm 8 mps 725 mmHg 72%
    15:00 +10°C° 0 mm 8 mps 725 mmHg 72%
    16:00 +10°C° 0 mm 8 mps 724 mmHg 72%
    17:00 +10°C° 0 mm 8 mps 724 mmHg 74%
    18:00 +10°C° 0 mm 8 mps 724 mmHg 76%
    19:00 +9°C° 0 mm 7 mps 724 mmHg 79%
    20:00 +9°C° 0 mm 7 mps 725 mmHg 79%
    21:00 +9°C° 0 mm 7 mps 725 mmHg 80%
    22:00 +8°C° 0 mm 7 mps 725 mmHg 81%
    23:00 +8°C° 0 mm 7 mps 725 mmHg 83%
    Show more